World > North America > United States > Utah

Cedar Pass, Utah Regional Weather

Lat: 40.39N, Lon: 111.85W
Wx Zone: UTZ004Web Search

Pass this page to a friend. Tell them to point their camera at the QR Code near the bottom of this page.

Feedback


°F Click to change Cedar Pass hourly weather to Imperial units.Click to change Cedar Pass hourly weather to Metric units. °C
Cedar Pass Weather Map
UTC Time: 4/12/2021, 12:13
Your Time:

Cedar Pass, UT Regional Weather

Expires:202104121300;;434648
ASUS45 KSLC 121210
RWRUT 

UTAH REGIONAL WEATHER ROUNDUP
NATIONAL WEATHER SERVICE SALT LAKE CITY UT
600 AM MDT MON APR 12 2021


UTZ001>011-023>025-121300-

NORTHERN UTAH
  
CITY           SKY/WX    TMP DP  RH WIND       PRES   REMARKS
BRIGHAM CITY   CLEAR     28  15  58 W3        30.02S                  
HILL AFB       CLEAR     30  13  49 E9        30.00R WCI  21          
LOGAN          CLEAR     24  16  71 CALM      30.04S                  
OGDEN          CLEAR     30  18  60 S3        30.00R                  
SALT LAKE CITY CLEAR     35  16  45 N5        30.02R WCI  31          
TOOELE VALLEY  CLEAR     23  18  80 S6        30.03S WCI  16          
WENDOVER       CLEAR     35   6  29 E7        30.05S WCI  29          
HEBER CITY       N/A     19   9  63 CALM      29.98R                  
WEST JORDAN    CLEAR     31  17  54 NW5       30.02S WCI  27          

$$


SKY/WX - Weather  TMP - Temperature  DP - Dew Point  RH - Relative Humidity
WIND - Wind Direction/Speed PRES - Barometric Pressure VSB - Visibility
WCI - Wind Chill Index E13G22 Wind - East Wind 13 mph/Gusts of 22 mph